This is the latest recevied weather packets stored in our database for station/object E7HQ-1. If no packets are shown the sender has not sent any weather packets the latest 10 day(s).
| Time | Temp. | Humidity | Pressure | Rain* | Wind** | Luminosity | Snow |
|---|---|---|---|---|---|---|---|
| 1777860834 | 8.89° C | 54% | 1029.3 hPa | - | - | - | - |
| 1777859934 | 9.44° C | 53% | 1029.2 hPa | - | - | - | - |
| 1777859034 | 10° C | 50% | 1029.1 hPa | - | - | - | - |
| 1777858134 | 10° C | 50% | 1029.2 hPa | - | - | - | - |
| 1777857233 | 10° C | 51% | 1029.2 hPa | - | - | - | - |
| 1777856333 | 10.56° C | 50% | 1029.2 hPa | - | - | - | - |
| 1777855433 | 10.56° C | 48% | 1029 hPa | - | - | - | - |
| 1777854533 | 11.67° C | 46% | 1029 hPa | - | - | - | - |
| 1777853632 | 11.67° C | 46% | 1029.2 hPa | - | - | - | - |
| 1777852732 | 11.67° C | 46% | 1029.2 hPa | - | - | - | - |
| 1777851832 | 11.67° C | 45% | 1029.2 hPa | - | - | - | - |
| 1777850937 | 12.22° C | 44% | 1029.3 hPa | - | - | - | - |
| 1777850037 | 12.22° C | 43% | 1029.2 hPa | - | - | - | - |
| 1777849137 | 12.22° C | 42% | 1029.3 hPa | - | - | - | - |
| 1777848236 | 12.78° C | 41% | 1029.3 hPa | - | - | - | - |
| 1777847336 | 12.78° C | 41% | 1029.4 hPa | - | - | - | - |
| 1777846436 | 12.78° C | 42% | 1029.4 hPa | - | - | - | - |
| 1777845536 | 12.22° C | 43% | 1029.3 hPa | - | - | - | - |
| 1777844636 | 12.22° C | 43% | 1029.3 hPa | - | - | - | - |
| 1777843735 | 12.22° C | 44% | 1029.3 hPa | - | - | - | - |
| 1777842835 | 12.78° C | 44% | 1029.4 hPa | - | - | - | - |
| 1777841935 | 12.22° C | 44% | 1029.3 hPa | - | - | - | - |
| 1777841035 | 12.22° C | 44% | 1029.3 hPa | - | - | - | - |
| 1777840135 | 12.78° C | 44% | 1029.3 hPa | - | - | - | - |
| 1777839234 | 12.78° C | 43% | 1029.2 hPa | - | - | - | - |
* Rain since midnight (hover to see other rain measurements)
** Current wind speed in m/s (hover to see current wind gust speed)